Year,Month,Day,Hour,Minute,Value (Times are PST for temperature in C)
2009,02,22,00,00,5.20
2009,02,22,00,01,5.20
2009,02,22,00,02,5.20
2009,02,22,00,03,5.20
2009,02,22,00,04,5.20
2009,02,22,00,05,5.20
2009,02,22,00,06,5.20
2009,02,22,00,07,5.20
2009,02,22,00,08,5.20
2009,02,22,00,09,5.20
2009,02,22,00,10,5.20
2009,02,22,00,11,5.20
2009,02,22,00,12,5.20
2009,02,22,01,02,5.90
2009,02,22,01,03,6.00
2009,02,22,01,04,6.10
2009,02,22,01,05,6.10
2009,02,22,01,06,6.10
2009,02,22,01,07,6.10
2009,02,22,01,08,6.10
2009,02,22,01,09,6.10
2009,02,22,01,10,6.10
2009,02,22,01,11,6.10
2009,02,22,01,12,6.10
2009,02,22,01,13,6.10
2009,02,22,01,14,6.10
2009,02,22,01,15,6.10
2009,02,22,01,16,6.10
2009,02,22,01,17,6.10
2009,02,22,01,18,6.10
2009,02,22,01,19,6.10
2009,02,22,01,20,6.10
2009,02,22,01,21,6.10
2009,02,22,01,22,6.10
2009,02,22,01,23,6.10
2009,02,22,01,24,6.10
2009,02,22,01,25,6.10
2009,02,22,01,26,6.10
2009,02,22,01,27,6.10
2009,02,22,01,28,6.10
2009,02,22,01,29,6.10
2009,02,22,01,30,6.10
2009,02,22,01,31,6.10
2009,02,22,01,32,6.10
2009,02,22,01,33,6.20
2009,02,22,01,34,6.20
2009,02,22,01,35,6.20
2009,02,22,01,36,6.20
2009,02,22,01,37,6.20
2009,02,22,01,38,6.30
2009,02,22,01,39,6.30
2009,02,22,01,40,6.30
2009,02,22,01,41,6.30
2009,02,22,01,42,6.30
2009,02,22,01,43,6.30
2009,02,22,01,44,6.30
2009,02,22,01,45,6.30
2009,02,22,01,46,6.30
2009,02,22,01,47,6.30
2009,02,22,01,48,6.30
2009,02,22,01,49,6.30
2009,02,22,01,50,6.30
2009,02,22,01,51,6.30
2009,02,22,01,52,6.40
2009,02,22,01,53,6.40
2009,02,22,01,54,6.40
2009,02,22,01,55,6.40
2009,02,22,01,56,6.40
2009,02,22,01,57,6.40
2009,02,22,01,58,6.40
2009,02,22,01,59,6.40
2009,02,22,02,00,6.40
2009,02,22,02,01,6.40
2009,02,22,02,02,6.40
2009,02,22,02,03,6.30
2009,02,22,02,04,6.30
2009,02,22,02,05,6.30
2009,02,22,02,06,6.30
2009,02,22,02,07,6.30
2009,02,22,02,08,6.30
2009,02,22,02,09,6.30
2009,02,22,02,10,6.20
2009,02,22,02,11,6.20
2009,02,22,02,12,6.20
2009,02,22,02,13,6.10
2009,02,22,02,14,6.10
2009,02,22,02,15,6.10
2009,02,22,02,16,6.10
2009,02,22,02,17,6.00
2009,02,22,02,18,6.00
2009,02,22,02,19,5.90
2009,02,22,02,20,5.90
2009,02,22,02,21,5.90
2009,02,22,02,22,5.90
2009,02,22,02,23,5.80
2009,02,22,02,24,5.80
2009,02,22,02,25,5.80
2009,02,22,02,26,5.80
2009,02,22,02,27,5.70
2009,02,22,02,28,5.70
2009,02,22,02,29,5.70
2009,02,22,02,30,5.60
2009,02,22,02,31,5.60
2009,02,22,02,32,5.60
2009,02,22,02,33,5.60
2009,02,22,02,34,5.60
2009,02,22,02,35,5.60
2009,02,22,02,36,5.50
2009,02,22,02,37,5.50
2009,02,22,02,38,5.50
2009,02,22,02,39,5.50
2009,02,22,02,40,5.50
2009,02,22,02,41,5.50
2009,02,22,02,42,5.50
2009,02,22,02,43,5.50
2009,02,22,02,44,5.50
2009,02,22,02,45,5.50
2009,02,22,02,46,5.60
2009,02,22,02,47,5.60
2009,02,22,02,48,5.60
2009,02,22,02,49,5.60
2009,02,22,02,50,5.60
2009,02,22,02,51,5.60
2009,02,22,02,52,5.60
2009,02,22,02,53,5.60
2009,02,22,02,54,5.60
2009,02,22,02,55,5.60
2009,02,22,02,56,5.60
2009,02,22,02,57,5.60
2009,02,22,02,58,5.60
2009,02,22,02,59,5.60
2009,02,22,03,00,5.60
2009,02,22,03,01,5.60
2009,02,22,03,02,5.60
2009,02,22,03,03,5.60
2009,02,22,03,04,5.60
2009,02,22,03,05,5.60
2009,02,22,03,06,5.60
2009,02,22,03,07,5.50
2009,02,22,03,08,5.50
2009,02,22,03,09,5.50
2009,02,22,03,10,5.50
2009,02,22,03,11,5.40
2009,02,22,03,12,5.40
2009,02,22,03,13,5.40
2009,02,22,03,14,5.40
2009,02,22,03,15,5.40
2009,02,22,03,16,5.40
2009,02,22,03,17,5.40
2009,02,22,03,18,5.40
2009,02,22,03,19,5.40
2009,02,22,03,20,5.30
2009,02,22,03,21,5.30
2009,02,22,03,22,5.30
2009,02,22,03,23,5.30
2009,02,22,03,24,5.30
2009,02,22,03,25,5.20
2009,02,22,03,26,5.20
2009,02,22,03,27,5.20
2009,02,22,03,28,5.20
2009,02,22,03,29,5.20
2009,02,22,03,30,5.20
2009,02,22,03,31,5.10
2009,02,22,03,32,5.20
2009,02,22,03,33,5.20
2009,02,22,03,34,5.20
2009,02,22,03,35,5.20
2009,02,22,03,36,5.20
2009,02,22,03,37,5.30
2009,02,22,03,38,5.30
2009,02,22,03,39,5.30
2009,02,22,03,40,5.30
2009,02,22,03,41,5.30
2009,02,22,03,42,5.40
2009,02,22,03,43,5.40
2009,02,22,03,44,5.40
2009,02,22,03,45,5.40
2009,02,22,03,46,5.40
2009,02,22,03,47,5.50
2009,02,22,03,48,5.50
2009,02,22,03,49,5.60
2009,02,22,03,50,5.60
2009,02,22,03,51,5.60
2009,02,22,03,52,5.60
2009,02,22,03,53,5.60
2009,02,22,03,54,5.60
2009,02,22,03,55,5.60
2009,02,22,03,56,5.70
2009,02,22,03,57,5.70
2009,02,22,03,58,5.70
2009,02,22,03,59,5.70
2009,02,22,04,00,5.70
2009,02,22,04,01,5.70
2009,02,22,04,02,5.80
2009,02,22,04,03,5.80
2009,02,22,04,04,5.80
2009,02,22,04,05,5.80
2009,02,22,04,06,5.80
2009,02,22,04,07,5.90
2009,02,22,04,08,5.90
2009,02,22,04,09,5.90
2009,02,22,04,10,5.90
2009,02,22,04,11,5.90
2009,02,22,04,12,5.90
2009,02,22,04,13,5.90
2009,02,22,04,14,5.90
2009,02,22,04,15,5.90
2009,02,22,04,16,6.00
2009,02,22,04,17,6.00
2009,02,22,04,18,6.00
2009,02,22,04,19,6.10
2009,02,22,04,20,6.10
2009,02,22,04,21,6.10
2009,02,22,04,22,6.20
2009,02,22,04,23,6.20
2009,02,22,04,24,6.20
2009,02,22,04,25,6.20
2009,02,22,04,26,6.20
2009,02,22,04,27,6.20
2009,02,22,04,28,6.20
2009,02,22,04,29,6.20
2009,02,22,04,30,6.20
2009,02,22,04,31,6.20
2009,02,22,04,32,6.20
2009,02,22,04,33,6.20
2009,02,22,04,34,6.20
2009,02,22,04,35,6.30
2009,02,22,04,36,6.30
2009,02,22,04,37,6.30
2009,02,22,04,38,6.30
2009,02,22,04,39,6.30
2009,02,22,04,40,6.30
2009,02,22,04,41,6.30
2009,02,22,04,42,6.30
2009,02,22,04,43,6.30
2009,02,22,04,44,6.30
2009,02,22,04,45,6.30
2009,02,22,04,46,6.30
2009,02,22,04,47,6.40
2009,02,22,04,48,6.40
2009,02,22,04,49,6.40
2009,02,22,04,50,6.40
2009,02,22,04,51,6.40
2009,02,22,04,52,6.40
2009,02,22,04,53,6.40
2009,02,22,04,54,6.40
2009,02,22,04,55,6.30
2009,02,22,04,56,6.40
2009,02,22,04,57,6.40
2009,02,22,04,58,6.40
2009,02,22,04,59,6.40
2009,02,22,05,00,6.40
2009,02,22,05,01,6.50
2009,02,22,05,02,6.50
2009,02,22,05,03,6.50
2009,02,22,05,04,6.50
2009,02,22,05,05,6.50
2009,02,22,05,06,6.60
2009,02,22,05,07,6.70
2009,02,22,05,08,6.70
2009,02,22,05,09,6.80
2009,02,22,05,10,6.90
2009,02,22,05,11,6.90
2009,02,22,05,12,7.00
2009,02,22,05,13,7.00
2009,02,22,05,14,7.00
2009,02,22,05,15,7.00
2009,02,22,05,16,7.00
2009,02,22,05,17,7.00
2009,02,22,05,18,7.00
2009,02,22,05,19,7.00
2009,02,22,05,20,7.00
2009,02,22,05,21,7.00
2009,02,22,05,22,7.00
2009,02,22,05,23,7.00
2009,02,22,05,24,7.10
2009,02,22,05,25,7.10
2009,02,22,05,26,7.10
2009,02,22,05,27,7.10
2009,02,22,05,28,7.10
2009,02,22,05,29,7.00
2009,02,22,05,30,7.00
2009,02,22,05,31,7.00
2009,02,22,05,32,7.00
2009,02,22,05,33,7.10
2009,02,22,05,34,7.10
2009,02,22,05,35,7.10
2009,02,22,05,36,7.10
2009,02,22,05,37,7.10
2009,02,22,05,38,7.10
2009,02,22,05,39,7.10
2009,02,22,05,40,7.10
2009,02,22,05,41,7.10
2009,02,22,05,42,7.10
2009,02,22,05,43,7.10
2009,02,22,05,44,7.10
2009,02,22,05,45,7.10
2009,02,22,05,46,7.10
2009,02,22,05,47,7.10
2009,02,22,05,48,7.10
2009,02,22,05,49,7.10
2009,02,22,05,50,7.20
2009,02,22,05,51,7.20
2009,02,22,05,52,7.20
2009,02,22,05,53,7.20
2009,02,22,05,54,7.20
2009,02,22,05,55,7.20
2009,02,22,05,56,7.20
2009,02,22,05,57,7.20
2009,02,22,05,58,7.20
2009,02,22,05,59,7.20
2009,02,22,06,00,7.20
2009,02,22,06,01,7.20
2009,02,22,06,02,7.20
2009,02,22,06,03,7.20
2009,02,22,06,04,7.20
2009,02,22,06,05,7.20
2009,02,22,06,06,7.20
2009,02,22,06,07,7.10
2009,02,22,06,08,7.10
2009,02,22,06,09,7.10
2009,02,22,06,10,7.10
2009,02,22,06,11,7.10
2009,02,22,06,12,7.10
2009,02,22,06,13,7.20
2009,02,22,06,14,7.20
2009,02,22,06,15,7.20
2009,02,22,06,16,7.20
2009,02,22,06,17,7.20
2009,02,22,06,18,7.20
2009,02,22,06,19,7.20
2009,02,22,06,20,7.30
2009,02,22,06,21,7.30
2009,02,22,06,22,7.30
2009,02,22,06,23,7.30
2009,02,22,06,24,7.30
2009,02,22,06,25,7.30
2009,02,22,06,26,7.30
2009,02,22,06,27,7.30
2009,02,22,06,28,7.30
2009,02,22,06,29,7.20
2009,02,22,06,30,7.20
2009,02,22,06,31,7.20
2009,02,22,06,32,7.20
2009,02,22,06,33,7.20
2009,02,22,06,34,7.20
2009,02,22,06,35,7.20
2009,02,22,06,36,7.20
2009,02,22,06,37,7.20
2009,02,22,06,38,7.20
2009,02,22,06,39,7.20
2009,02,22,06,40,7.20
2009,02,22,06,41,7.20
2009,02,22,06,42,7.20
2009,02,22,06,43,7.20
2009,02,22,06,44,7.20
2009,02,22,06,45,7.20
2009,02,22,06,46,7.20
2009,02,22,06,47,7.20
2009,02,22,06,48,7.20
2009,02,22,06,49,7.10
2009,02,22,06,50,7.20
2009,02,22,06,51,7.10
2009,02,22,06,52,7.10
2009,02,22,06,53,7.10
2009,02,22,06,54,7.10
2009,02,22,06,55,7.10
2009,02,22,06,56,7.10
2009,02,22,06,57,7.10
2009,02,22,06,58,7.10
2009,02,22,06,59,7.10
2009,02,22,07,00,7.10
2009,02,22,07,01,7.20
2009,02,22,07,02,7.20
2009,02,22,07,03,7.20
2009,02,22,07,04,7.20
2009,02,22,07,05,7.20
2009,02,22,07,06,7.20
2009,02,22,07,07,7.20
2009,02,22,07,08,7.10
2009,02,22,07,09,7.10
2009,02,22,07,10,7.10
2009,02,22,07,11,7.00
2009,02,22,07,12,6.90
2009,02,22,07,13,6.80
2009,02,22,07,14,6.80
2009,02,22,07,15,6.70
2009,02,22,07,16,6.60
2009,02,22,07,17,6.60
2009,02,22,07,18,6.50
2009,02,22,07,19,6.50
2009,02,22,07,20,6.40
2009,02,22,07,21,6.40
2009,02,22,07,22,6.30
2009,02,22,07,23,6.30
2009,02,22,07,24,6.20
2009,02,22,07,25,6.20
2009,02,22,07,26,6.20
2009,02,22,07,27,6.20
2009,02,22,07,28,6.20
2009,02,22,07,29,6.10
2009,02,22,07,30,6.10
2009,02,22,07,31,6.10
2009,02,22,07,32,6.10
2009,02,22,07,33,6.00
2009,02,22,07,34,6.00
2009,02,22,07,35,5.90
2009,02,22,07,36,5.90
2009,02,22,07,37,5.90
2009,02,22,07,38,5.90
2009,02,22,07,39,5.80
2009,02,22,07,40,5.80
2009,02,22,07,41,5.80
2009,02,22,07,42,5.80
2009,02,22,07,43,5.80
2009,02,22,07,44,5.80
2009,02,22,07,45,5.70
2009,02,22,07,46,5.70
2009,02,22,07,47,5.70
2009,02,22,07,48,5.70
2009,02,22,07,49,5.70
2009,02,22,07,50,5.70
2009,02,22,07,51,5.70
2009,02,22,07,52,5.70
2009,02,22,07,53,5.80
2009,02,22,07,54,5.80
2009,02,22,07,55,5.80
2009,02,22,07,56,5.80
2009,02,22,07,57,5.80
2009,02,22,07,58,5.80
2009,02,22,07,59,5.80
2009,02,22,08,00,5.80
2009,02,22,08,01,5.70
2009,02,22,08,02,5.70
2009,02,22,08,03,5.70
2009,02,22,08,04,5.70
2009,02,22,08,05,5.70
2009,02,22,08,06,5.70
2009,02,22,08,07,5.70
2009,02,22,08,08,5.70
2009,02,22,08,09,5.70
2009,02,22,08,10,5.60
2009,02,22,08,11,5.60
2009,02,22,08,12,5.60
2009,02,22,08,13,5.60
2009,02,22,08,14,5.60
2009,02,22,08,15,5.60
2009,02,22,08,16,5.50
2009,02,22,08,17,5.50
2009,02,22,08,18,5.50
2009,02,22,08,19,5.50
2009,02,22,08,20,5.50
2009,02,22,08,21,5.50
2009,02,22,08,22,5.50
2009,02,22,08,23,5.40
2009,02,22,08,24,5.40
2009,02,22,08,25,5.40
2009,02,22,08,26,5.40
2009,02,22,08,27,5.40
2009,02,22,08,28,5.40
2009,02,22,08,29,5.40
2009,02,22,08,30,5.40
2009,02,22,08,31,5.40
2009,02,22,08,32,5.40
2009,02,22,08,33,5.40
2009,02,22,08,34,5.50
2009,02,22,08,35,5.50
2009,02,22,08,36,5.50
2009,02,22,08,37,5.60
2009,02,22,08,38,5.60
2009,02,22,08,39,5.60
2009,02,22,08,40,5.60
2009,02,22,08,41,5.70
2009,02,22,08,42,5.70
2009,02,22,08,43,5.70
2009,02,22,08,44,5.70
2009,02,22,08,45,5.70
2009,02,22,08,46,5.70
2009,02,22,08,47,5.70
2009,02,22,08,48,5.80
2009,02,22,08,49,5.80
2009,02,22,08,50,5.80
2009,02,22,08,51,5.80
2009,02,22,08,52,5.80
2009,02,22,08,53,5.80
2009,02,22,08,54,5.80
2009,02,22,08,55,5.80
2009,02,22,08,56,5.80
2009,02,22,08,57,5.90
2009,02,22,08,58,5.90
2009,02,22,08,59,5.90
2009,02,22,09,00,5.90
2009,02,22,09,01,5.90
2009,02,22,09,02,5.90
2009,02,22,09,03,5.90
2009,02,22,09,04,5.90
2009,02,22,09,05,5.90
2009,02,22,09,06,5.90
2009,02,22,09,07,5.90
2009,02,22,09,08,5.90
2009,02,22,09,09,5.90
2009,02,22,09,10,5.90
2009,02,22,09,11,5.90
2009,02,22,09,12,5.90
2009,02,22,09,13,5.90
2009,02,22,09,14,5.90
2009,02,22,09,15,5.90
2009,02,22,09,16,5.90
2009,02,22,09,17,5.90
2009,02,22,09,18,5.90
2009,02,22,09,19,5.90
2009,02,22,09,20,5.90
2009,02,22,09,21,5.90
2009,02,22,09,22,5.90
2009,02,22,09,23,5.90
2009,02,22,09,24,5.90
2009,02,22,09,25,5.90
2009,02,22,09,26,6.00
2009,02,22,09,27,6.00
2009,02,22,09,28,6.00
2009,02,22,09,29,6.00
2009,02,22,09,30,6.00
2009,02,22,09,31,6.10
2009,02,22,09,32,6.10
2009,02,22,09,33,6.10
2009,02,22,09,34,6.10
2009,02,22,09,35,6.20
2009,02,22,09,36,6.20
2009,02,22,09,37,6.20
2009,02,22,09,38,6.20
2009,02,22,09,39,6.20
2009,02,22,09,40,6.30
2009,02,22,09,41,6.30
2009,02,22,09,42,6.30
2009,02,22,09,43,6.30
2009,02,22,09,44,6.30
2009,02,22,09,45,6.30
2009,02,22,09,46,6.40
2009,02,22,09,47,6.40
2009,02,22,09,48,6.40
2009,02,22,09,49,6.40
2009,02,22,09,50,6.40
2009,02,22,09,51,6.40
2009,02,22,09,52,6.50
2009,02,22,09,53,6.50
2009,02,22,09,54,6.50
2009,02,22,09,55,6.50
2009,02,22,09,56,6.50
2009,02,22,09,57,6.50
2009,02,22,09,58,6.60
2009,02,22,09,59,6.50
2009,02,22,10,00,6.60
2009,02,22,10,01,6.60
2009,02,22,10,02,6.60
2009,02,22,10,03,6.60
2009,02,22,10,04,6.60
2009,02,22,10,05,6.60
2009,02,22,10,06,6.60
2009,02,22,10,07,6.60
2009,02,22,10,08,6.60
2009,02,22,10,09,6.60
2009,02,22,10,10,6.60
2009,02,22,10,11,6.60
2009,02,22,10,12,6.60
2009,02,22,10,13,6.60
2009,02,22,10,14,6.60
2009,02,22,10,15,6.60
2009,02,22,10,16,6.50
2009,02,22,10,17,6.50
2009,02,22,10,18,6.50
2009,02,22,10,19,6.50
2009,02,22,10,20,6.50
2009,02,22,10,21,6.50
2009,02,22,10,22,6.50
2009,02,22,10,23,6.50
2009,02,22,10,24,6.50
2009,02,22,10,25,6.50
2009,02,22,10,26,6.50
2009,02,22,10,27,6.50
2009,02,22,10,28,6.60
2009,02,22,10,29,6.60
2009,02,22,10,30,6.60
2009,02,22,10,31,6.60
2009,02,22,10,32,6.60
2009,02,22,10,33,6.60
2009,02,22,10,34,6.60
2009,02,22,10,35,6.60
2009,02,22,10,36,6.60
2009,02,22,10,37,6.60
2009,02,22,10,38,6.60
2009,02,22,10,39,6.60
2009,02,22,10,40,6.60
2009,02,22,10,41,6.70
2009,02,22,10,42,6.70
2009,02,22,10,43,6.70
2009,02,22,10,44,6.70
2009,02,22,10,45,6.70
2009,02,22,10,46,6.70
2009,02,22,10,47,6.70
2009,02,22,10,48,6.70
2009,02,22,10,49,6.70
2009,02,22,10,50,6.70
2009,02,22,10,51,6.70
2009,02,22,10,52,6.70
2009,02,22,10,53,6.70
2009,02,22,10,54,6.70
2009,02,22,10,55,6.60
2009,02,22,10,56,6.60
2009,02,22,10,57,6.60
2009,02,22,10,58,6.60
2009,02,22,10,59,6.50
2009,02,22,11,00,6.50
2009,02,22,11,01,6.50
2009,02,22,11,02,6.50
2009,02,22,11,03,6.50
2009,02,22,11,04,6.50
2009,02,22,11,05,6.60
2009,02,22,11,06,6.60
2009,02,22,11,07,6.60
2009,02,22,11,08,6.70
2009,02,22,11,09,6.70
2009,02,22,11,10,6.80
2009,02,22,11,11,6.80
2009,02,22,11,12,6.90
2009,02,22,11,13,7.00
2009,02,22,11,14,7.00
2009,02,22,11,15,7.10
2009,02,22,11,16,7.20
2009,02,22,11,17,7.20
2009,02,22,11,18,7.20
2009,02,22,11,19,7.20
2009,02,22,11,20,7.20
2009,02,22,11,21,7.20
2009,02,22,11,22,7.30
2009,02,22,11,23,7.30
2009,02,22,11,24,7.30
2009,02,22,11,25,7.30
2009,02,22,11,26,7.30
2009,02,22,11,27,7.30
2009,02,22,11,28,7.30
2009,02,22,11,29,7.30
2009,02,22,11,30,7.30
2009,02,22,11,31,7.30
2009,02,22,11,32,7.30
2009,02,22,11,33,7.30
2009,02,22,11,34,7.40
2009,02,22,11,35,7.40
2009,02,22,11,36,7.40
2009,02,22,11,37,7.50
2009,02,22,11,38,7.50
2009,02,22,11,39,7.60
2009,02,22,11,40,7.60
2009,02,22,11,41,7.60
2009,02,22,11,42,7.70
2009,02,22,11,43,7.70
2009,02,22,11,44,7.70
2009,02,22,11,45,7.80
2009,02,22,11,46,7.80
2009,02,22,11,47,7.80
2009,02,22,11,48,7.90
2009,02,22,11,49,7.90
2009,02,22,11,50,7.90
2009,02,22,11,51,8.00
2009,02,22,11,52,8.00
2009,02,22,11,53,8.00
2009,02,22,11,54,8.10
2009,02,22,11,55,8.10
2009,02,22,11,56,8.10
2009,02,22,11,57,8.10
2009,02,22,11,58,8.10
2009,02,22,11,59,8.10
2009,02,22,12,00,8.10
2009,02,22,12,01,8.20
2009,02,22,12,02,8.20
2009,02,22,12,03,8.20
2009,02,22,12,04,8.20
2009,02,22,12,05,8.20
2009,02,22,12,06,8.30
2009,02,22,12,07,8.30
2009,02,22,12,08,8.30
2009,02,22,12,09,8.30
2009,02,22,12,10,8.40
2009,02,22,12,11,8.40
2009,02,22,12,12,8.40
2009,02,22,12,13,8.40
2009,02,22,12,14,8.50
2009,02,22,12,15,8.50
2009,02,22,12,16,8.50
2009,02,22,12,17,8.50
2009,02,22,12,18,8.50
2009,02,22,12,19,8.60
2009,02,22,12,20,8.50
2009,02,22,12,21,8.50
2009,02,22,12,22,8.60
2009,02,22,12,23,8.60
2009,02,22,12,24,8.60
2009,02,22,12,25,8.60
2009,02,22,12,26,8.70
2009,02,22,12,27,8.70
2009,02,22,12,28,8.80
2009,02,22,12,29,8.80
2009,02,22,12,30,8.90
2009,02,22,12,31,8.90
2009,02,22,12,32,8.90
2009,02,22,12,33,9.00
2009,02,22,12,34,9.00
2009,02,22,12,35,9.10
2009,02,22,12,36,9.10
2009,02,22,12,37,9.10
2009,02,22,12,38,9.10
2009,02,22,12,39,9.10
2009,02,22,12,40,9.10
2009,02,22,12,41,9.10
2009,02,22,12,42,9.10
2009,02,22,12,43,9.10
2009,02,22,12,44,9.20
2009,02,22,12,45,9.20
2009,02,22,12,46,9.30
2009,02,22,12,47,9.40
2009,02,22,12,48,9.40
2009,02,22,12,49,9.50
2009,02,22,12,50,9.60
2009,02,22,12,51,9.60
2009,02,22,12,52,9.60
2009,02,22,12,53,9.60
2009,02,22,12,54,9.60
2009,02,22,12,55,9.70
2009,02,22,12,56,9.70
2009,02,22,12,57,9.70
2009,02,22,12,58,9.80
2009,02,22,12,59,9.80
2009,02,22,13,00,9.90
2009,02,22,13,01,9.90
2009,02,22,13,02,10.00
2009,02,22,13,03,10.10
2009,02,22,13,04,10.20
2009,02,22,13,05,10.30
2009,02,22,13,06,10.40
2009,02,22,13,07,10.50
2009,02,22,13,08,10.70
2009,02,22,13,09,10.80
2009,02,22,13,10,10.80
2009,02,22,13,11,10.90
2009,02,22,13,12,10.90
2009,02,22,13,13,10.90
2009,02,22,13,14,10.90
2009,02,22,13,15,10.90
2009,02,22,13,16,10.80
2009,02,22,13,17,10.80
2009,02,22,13,18,10.70
2009,02,22,13,19,10.70
2009,02,22,13,20,10.70
2009,02,22,13,21,10.70
2009,02,22,13,22,10.70
2009,02,22,13,23,10.60
2009,02,22,13,24,10.60
2009,02,22,13,25,10.60
2009,02,22,13,26,10.60
2009,02,22,13,27,10.60
2009,02,22,13,28,10.60
2009,02,22,13,29,10.60
2009,02,22,13,30,10.60
2009,02,22,13,31,10.60
2009,02,22,13,32,10.70
2009,02,22,13,33,10.80
2009,02,22,13,34,10.80
2009,02,22,13,35,10.90
2009,02,22,13,36,10.90
2009,02,22,13,37,11.00
2009,02,22,13,38,11.00
2009,02,22,13,39,11.10
2009,02,22,13,40,11.10
2009,02,22,13,41,11.20
2009,02,22,13,42,11.20
2009,02,22,13,43,11.20
2009,02,22,13,44,11.20
2009,02,22,13,45,11.20
2009,02,22,13,46,11.20
2009,02,22,13,47,11.20
2009,02,22,13,48,11.30
2009,02,22,13,49,11.40
2009,02,22,13,50,11.40
2009,02,22,13,51,11.40
2009,02,22,13,52,11.50
2009,02,22,13,53,11.60
2009,02,22,13,54,11.60
2009,02,22,13,55,11.70
2009,02,22,13,56,11.70
2009,02,22,13,57,11.70
2009,02,22,13,58,11.80
2009,02,22,13,59,11.90
2009,02,22,14,00,11.90
2009,02,22,14,01,12.00
2009,02,22,14,02,12.00
2009,02,22,14,03,12.00
2009,02,22,14,04,11.90
2009,02,22,14,05,11.90
2009,02,22,14,06,11.90
2009,02,22,14,07,11.80
2009,02,22,14,08,11.80
2009,02,22,14,09,11.80
2009,02,22,14,10,11.80
2009,02,22,14,11,11.80
2009,02,22,14,12,11.80
2009,02,22,14,13,11.90
2009,02,22,14,14,11.90
2009,02,22,14,15,12.00
2009,02,22,14,16,12.10
2009,02,22,14,17,12.10
2009,02,22,14,18,12.20
2009,02,22,14,19,12.20
2009,02,22,14,20,12.20
2009,02,22,14,21,12.20
2009,02,22,14,22,12.30
2009,02,22,14,23,12.30
2009,02,22,14,24,12.30
2009,02,22,14,25,12.30
2009,02,22,14,26,12.30
2009,02,22,14,27,12.20
2009,02,22,14,28,12.20
2009,02,22,14,29,12.20
2009,02,22,14,30,12.20
2009,02,22,14,31,12.20
2009,02,22,14,32,12.30
2009,02,22,14,33,12.30
2009,02,22,14,34,12.30
2009,02,22,14,35,12.30
2009,02,22,14,36,12.30
2009,02,22,14,37,12.30
2009,02,22,14,38,12.20
2009,02,22,14,39,12.20
2009,02,22,14,40,12.20
2009,02,22,14,41,12.20
2009,02,22,14,42,12.20
2009,02,22,14,43,12.20
2009,02,22,14,44,12.30
2009,02,22,14,45,12.40
2009,02,22,14,46,12.50
2009,02,22,14,47,12.50
2009,02,22,14,48,12.50
2009,02,22,14,49,12.50
2009,02,22,14,50,12.50
2009,02,22,14,51,12.40
2009,02,22,14,52,12.40
2009,02,22,14,53,12.40
2009,02,22,14,54,12.40
2009,02,22,14,55,12.40
2009,02,22,14,56,12.40
2009,02,22,14,57,12.40
2009,02,22,14,58,12.40
2009,02,22,14,59,12.50
2009,02,22,15,00,12.50
2009,02,22,15,01,12.50
2009,02,22,15,02,12.60
2009,02,22,15,03,12.50
2009,02,22,15,04,12.50
2009,02,22,15,05,12.50
2009,02,22,15,06,12.50
2009,02,22,15,07,12.40
2009,02,22,15,08,12.30
2009,02,22,15,09,12.30
2009,02,22,15,10,12.30
2009,02,22,15,11,12.20
2009,02,22,15,12,12.20
2009,02,22,15,13,12.20
2009,02,22,15,14,12.10
2009,02,22,15,15,12.10
2009,02,22,15,16,12.00
2009,02,22,15,17,11.90
2009,02,22,15,18,11.80
2009,02,22,15,19,11.70
2009,02,22,15,20,11.60
2009,02,22,15,21,11.60
2009,02,22,15,22,11.50
2009,02,22,15,23,11.30
2009,02,22,15,24,11.30
2009,02,22,15,25,11.10
2009,02,22,15,26,11.00
2009,02,22,15,27,11.00
2009,02,22,15,28,10.90
2009,02,22,15,29,10.90
2009,02,22,15,30,10.80
2009,02,22,15,31,10.80
2009,02,22,15,32,10.80
2009,02,22,15,33,10.70
2009,02,22,15,34,10.70
2009,02,22,15,35,10.60
2009,02,22,15,36,10.60
2009,02,22,15,37,10.60
2009,02,22,15,38,10.60
2009,02,22,15,39,10.60
2009,02,22,15,40,10.60
2009,02,22,15,41,10.60
2009,02,22,15,42,10.60
2009,02,22,15,43,10.50
2009,02,22,15,44,10.50
2009,02,22,15,45,10.50
2009,02,22,15,46,10.40
2009,02,22,15,47,10.40
2009,02,22,15,48,10.40
2009,02,22,15,49,10.40
2009,02,22,15,50,10.40
2009,02,22,15,51,10.30
2009,02,22,15,52,10.30
2009,02,22,15,53,10.30
2009,02,22,15,54,10.20
2009,02,22,15,55,10.20
2009,02,22,15,56,10.20
2009,02,22,15,57,10.10
2009,02,22,15,58,10.10
2009,02,22,15,59,10.10
2009,02,22,16,00,10.10
2009,02,22,16,01,10.00
2009,02,22,16,02,10.00
2009,02,22,16,03,9.90
2009,02,22,16,04,9.90
2009,02,22,16,05,9.90
2009,02,22,16,06,9.90
2009,02,22,16,07,9.80
2009,02,22,16,08,9.80
2009,02,22,16,09,9.80
2009,02,22,16,10,9.80
2009,02,22,16,11,9.80
2009,02,22,16,12,9.80
2009,02,22,16,13,9.80
2009,02,22,16,14,9.80
2009,02,22,16,15,9.70
2009,02,22,16,16,9.70
2009,02,22,16,17,9.70
2009,02,22,16,18,9.70
2009,02,22,16,19,9.70
2009,02,22,16,20,9.60
2009,02,22,16,21,9.60
2009,02,22,16,22,9.60
2009,02,22,16,23,9.60
2009,02,22,16,24,9.60
2009,02,22,16,25,9.60
2009,02,22,16,26,9.60
2009,02,22,16,27,9.60
2009,02,22,16,28,9.50
2009,02,22,16,29,9.50
2009,02,22,16,30,9.50
2009,02,22,16,31,9.40
2009,02,22,16,32,9.40
2009,02,22,16,33,9.30
2009,02,22,16,34,9.30
2009,02,22,16,35,9.20
2009,02,22,16,36,9.10
2009,02,22,16,37,9.10
2009,02,22,16,38,9.00
2009,02,22,16,39,8.90
2009,02,22,16,40,8.90
2009,02,22,16,41,8.90
2009,02,22,16,42,8.80
2009,02,22,16,43,8.80
2009,02,22,16,44,8.80
2009,02,22,16,45,8.70
2009,02,22,16,46,8.70
2009,02,22,16,47,8.70
2009,02,22,16,48,8.60
2009,02,22,16,49,8.60
2009,02,22,16,50,8.60
2009,02,22,16,51,8.50
2009,02,22,16,52,8.40
2009,02,22,16,53,8.40
2009,02,22,16,54,8.40
2009,02,22,16,55,8.30
2009,02,22,16,56,8.30
2009,02,22,16,57,8.30
2009,02,22,16,58,8.30
2009,02,22,16,59,8.30
2009,02,22,17,00,8.20
2009,02,22,17,01,8.20
2009,02,22,17,02,8.20
2009,02,22,17,03,8.20
2009,02,22,17,04,8.20
2009,02,22,17,05,8.20
2009,02,22,17,06,8.10
2009,02,22,17,07,8.10
2009,02,22,17,08,8.10
2009,02,22,17,09,8.10
2009,02,22,17,10,8.10
2009,02,22,17,11,8.10
2009,02,22,17,12,8.10
2009,02,22,17,13,8.00
2009,02,22,17,14,8.00
2009,02,22,17,15,8.00
2009,02,22,17,16,8.00
2009,02,22,17,17,8.00
2009,02,22,17,18,8.00
2009,02,22,17,19,8.00
2009,02,22,17,20,8.00
2009,02,22,17,21,8.00
2009,02,22,17,22,8.00
2009,02,22,17,23,8.00
2009,02,22,17,24,8.00
2009,02,22,17,25,8.00
2009,02,22,17,26,8.00
2009,02,22,17,27,7.90
2009,02,22,17,28,7.90
2009,02,22,17,29,7.90
2009,02,22,17,30,7.90
2009,02,22,17,31,7.90
2009,02,22,17,32,7.90
2009,02,22,17,33,7.90
2009,02,22,17,34,7.90
2009,02,22,17,35,7.90
2009,02,22,17,36,7.90
2009,02,22,17,37,7.90
2009,02,22,17,38,7.90
2009,02,22,17,39,7.90
2009,02,22,17,40,7.90
2009,02,22,17,41,7.90
2009,02,22,17,42,7.90
2009,02,22,17,43,7.80
2009,02,22,17,44,7.80
2009,02,22,17,45,7.80
2009,02,22,17,46,7.80
2009,02,22,17,47,7.80
2009,02,22,17,48,7.80
2009,02,22,17,49,7.80
2009,02,22,17,50,7.70
2009,02,22,17,51,7.70
2009,02,22,17,52,7.70
2009,02,22,17,53,7.70
2009,02,22,17,54,7.70
2009,02,22,17,55,7.70
2009,02,22,17,56,7.70
2009,02,22,17,57,7.60
2009,02,22,17,58,7.60
2009,02,22,17,59,7.60
2009,02,22,18,00,7.60
2009,02,22,18,01,7.60
2009,02,22,18,02,7.60
2009,02,22,18,03,7.60
2009,02,22,18,04,7.50
2009,02,22,18,05,7.50
2009,02,22,18,06,7.50
2009,02,22,18,07,7.50
2009,02,22,18,08,7.40
2009,02,22,18,09,7.40
2009,02,22,18,10,7.40
2009,02,22,18,11,7.40
2009,02,22,18,12,7.40
2009,02,22,18,13,7.30
2009,02,22,18,14,7.30
2009,02,22,18,15,7.30
2009,02,22,18,16,7.30
2009,02,22,18,17,7.30
2009,02,22,18,18,7.30
2009,02,22,18,19,7.20
2009,02,22,18,20,7.20
2009,02,22,18,21,7.20
2009,02,22,18,22,7.20
2009,02,22,18,23,7.20
2009,02,22,18,24,7.20
2009,02,22,18,25,7.20
2009,02,22,18,26,7.20
2009,02,22,18,27,7.20
2009,02,22,18,28,7.20
2009,02,22,18,29,7.20
2009,02,22,18,30,7.10
2009,02,22,18,31,7.10
2009,02,22,18,32,7.10
2009,02,22,18,33,7.10
2009,02,22,18,34,7.10
2009,02,22,18,35,7.10
2009,02,22,18,36,7.00
2009,02,22,18,37,7.00
2009,02,22,18,38,7.00
2009,02,22,18,39,7.00
2009,02,22,18,40,6.90
2009,02,22,18,41,6.90
2009,02,22,18,42,6.90
2009,02,22,18,43,6.90
2009,02,22,18,44,6.80
2009,02,22,18,45,6.80
2009,02,22,18,46,6.80
2009,02,22,18,47,6.80